Date,TemperatureHighF,TemperatureAvgF,TemperatureLowF,DewpointHighF,DewpointAvgF,DewpointLowF,HumidityHigh,HumidityAvg,HumidityLow,PressureMaxIn,PressureMinIn,WindSpeedMaxMPH,WindSpeedAvgMPH,GustSpeedMaxMPH,PrecipitationSumIn
2013-4-1,68,55,40,34,20,4,47,27,17,29.91,29.59,17,6,24,0.00
2013-4-2,48,40,31,8,3,-5,23,21,19,30.09,29.88,18,6,232,16.11
2013-4-3,50,42,33,9,4,-1,23,21,19,30.30,30.06,20,7,137,7.71
2013-4-4,57,41,29,12,4,-7,23,21,17,30.41,30.09,15,4,18,0.00
2013-4-5,62,49,40,23,12,5,38,23,16,30.09,29.71,14,4,172,20.17
2013-4-6,53,43,37,11,5,1,23,20,18,30.33,29.97,15,6,19,0.00
2013-4-7,56,52,32,24,16,0,32,24,20,30.30,30.00,21,7,133,25.61
2013-4-8,71,59,51,30,22,16,36,24,17,30.09,29.94,13,4,15,0.00
2013-4-9,87,71,57,31,27,18,36,21,13,30.00,29.91,20,5,232,7.43
2013-4-10,69,62,52,36,23,15,38,23,17,29.94,29.79,18,6,20,0.00
2013-4-11,68,58,51,50,31,24,54,36,29,30.00,29.76,16,6,20,0.00
2013-4-12,51,50,49,44,35,25,81,56,37,29.97,29.65,26,10,90,29.09
2013-4-13,63,52,-21,31,22,-26,77,33,16,29.97,29.71,13,5,122,10.16
2013-4-14,66,58,49,29,17,9,38,20,15,30.18,29.97,19,5,20,0.00
2013-4-15,54,50,47,24,14,7,36,23,19,30.33,30.18,14,5,16,0.00
2013-4-16,65,58,32,33,26,0,37,30,23,30.36,30.12,20,6,127,9.97
2013-4-17,64,60,32,35,24,0,35,26,18,30.27,30.06,149,4,172,15.32
2013-4-18,62,55,50,39,25,11,45,31,20,30.33,30.06,12,4,115,0.00
2013-4-19,78,66,59,57,42,-30,82,44,1,30.12,29.68,20,7,21,28.26
2013-4-20,69,57,32,41,19,0,38,24,16,30.27,29.65,18,7,105,15.07
2013-4-21,50,46,38,10,7,2,21,20,19,30.59,30.27,14,6,57,7.71
2013-4-22,50,46,43,18,12,4,31,24,20,30.62,30.41,22,9,142,12.76
2013-4-23,52,48,45,24,19,15,38,31,27,30.44,30.06,25,9,27,0.00
2013-4-24,78,54,45,34,24,0,39,32,21,30.09,29.82,16,5,232,0.00
2013-4-25,66,55,47,32,20,12,36,25,15,30.27,29.88,13,4,14,0.00
2013-4-26,68,55,42,22,16,10,29,22,17,30.39,30.24,13,4,13,0.00
2013-4-27,64,56,47,20,14,10,27,20,16,30.41,30.30,12,4,13,0.00
2013-4-28,66,59,49,25,19,11,31,21,17,30.30,30.18,13,4,17,0.00
2013-4-29,57,56,55,31,27,22,37,33,26,30.21,30.12,19,5,19,0.00
2013-4-30,62,56,51,29,23,17,36,28,22,30.30,30.12,133,6,133,1.52